This is the latest recevied weather packets stored in our database for station/object OE6ATD-13. If no packets are shown the sender has not sent any weather packets the latest 10 day(s).
| Time | Temp. | Humidity | Pressure | Rain* | Wind** | Luminosity | Snow |
|---|---|---|---|---|---|---|---|
| 1777681523 | 7.78° C | 75% | 1024.9 hPa | 0 mm | - | 0 W/m² | - |
| 1777680918 | 7.22° C | 77% | 1025 hPa | 0 mm | - | 0 W/m² | - |
| 1777680329 | 7.22° C | 77% | 1025.1 hPa | 0 mm | - | 0 W/m² | - |
| 1777679725 | 7.22° C | 77% | 1025.2 hPa | 0 mm | - | 0 W/m² | - |
| 1777679121 | 7.78° C | 74% | 1025.2 hPa | 0 mm | - | 0 W/m² | - |
| 1777678517 | 7.78° C | 73% | 1025.3 hPa | 0 mm | - | 0 W/m² | - |
| 1777677919 | 8.33° C | 72% | 1025.4 hPa | 0 mm | - | 0 W/m² | - |
| 1777677330 | 8.33° C | 72% | 1025.5 hPa | 0 mm | - | 0 W/m² | - |
| 1777676725 | 8.33° C | 73% | 1025.4 hPa | 0 mm | - | 0 W/m² | - |
| 1777676122 | 8.33° C | 72% | 1025.6 hPa | 0 mm | - | 0 W/m² | - |
| 1777675518 | 8.33° C | 71% | 1025.7 hPa | 0 mm | - | 0 W/m² | - |
| 1777674928 | 8.89° C | 71% | 1025.7 hPa | 0 mm | - | 0 W/m² | - |
| 1777674325 | 8.89° C | 71% | 1025.8 hPa | 0 mm | - | 0 W/m² | - |
| 1777673720 | 9.44° C | 69% | 1025.7 hPa | 0 mm | - | 0 W/m² | - |
| 1777673115 | 10° C | 69% | 1025.7 hPa | 0 mm | - | 0 W/m² | - |
| 1777672527 | 10° C | 68% | 1025.8 hPa | 0 mm | - | 0 W/m² | - |
| 1777671923 | 10° C | 66% | 1025.7 hPa | 0 mm | - | 0 W/m² | - |
| 1777671318 | 10° C | 67% | 1025.6 hPa | 0 mm | - | 0 W/m² | - |
| 1777670729 | 10° C | 67% | 1025.7 hPa | 0 mm | - | 0 W/m² | - |
| 1777670125 | 10° C | 66% | 1025.8 hPa | 0 mm | - | 0 W/m² | - |
| 1777669520 | 10.56° C | 66% | 1025.9 hPa | 0 mm | - | 0 W/m² | - |
| 1777668916 | 10.56° C | 67% | 1025.7 hPa | 0 mm | - | 0 W/m² | - |
| 1777668327 | 10° C | 68% | 1025.8 hPa | 0 mm | - | 0 W/m² | - |
| 1777667723 | 10° C | 67% | 1025.7 hPa | 0 mm | - | 0 W/m² | - |
| 1777667118 | 10.56° C | 65% | 1025.7 hPa | 0 mm | - | 0 W/m² | - |
* Rain latest hour (hover to see other rain measurements)
** Current wind speed in m/s (hover to see current wind gust speed)